COSMOS 2533

Last updated on Thu Oct 30 2025 00:02:51 GMT+0000 (Coordinated Universal Time)

1 43867U 18107A 25302.55627149 -.00000028 00000+0 00000+0 0 9995 2 43867 0.0361 71.0790 0000731 208.1686 29.1623 1.00268386 25123
UTC large
Height (km)
Speed (km/s)
/
Latitude / Longitude
Inclination (degrees)
Orbital Period (minutes)
Azimuth
Elevation
Range (km)
Doppler Factor

Next 0 passes for location: London (51.5072 / 0.1276)

Sorry there are no passes over London.